Regional Weather Roundup
Issued by NWS

Home | Current Version | Previous Version | Text Only | Print | Product List | Glossary On
Versions: 1 2 3 4 5 6 7 8 9 10 11 12 13 14 15 16 17 18 19 20 21 22 23 24 25 26 27 28 29 30 31 32 33 34 35 36 37 38 39 40 41 42 43 44 45 46 47 48 49 50
000
ASUS43 KMKX 241711
RWRWI

WISCONSIN REGIONAL WEATHER ROUNDUP
NATIONAL WEATHER SERVICE MILWAUKEE/SULLIVAN WI
1200 PM CDT FRI OCT 24 2014

NOTE: "FAIR" INDICATES FEW OR NO CLOUDS BELOW 12,000 FEET WITH NO
SIGNIFICANT WEATHER AND/OR OBSTRUCTIONS TO VISIBILITY.

WIZ001-002-006>008-014>016-023>028-241800-
NORTHWEST WISCONSIN

CITY           SKY/WX    TMP DP  RH WIND       PRES   REMARKS
SUPERIOR ARPT  SUNNY     64  49  59 SW10G16   29.83F
ASHLAND        SUNNY     63  46  54 SW10G18   29.86F
HAYWARD        SUNNY     57  48  72 S13       29.88F
SIREN          SUNNY     63  50  62 S12       29.86F
CUMBERLAND     SUNNY     55  48  76 S9        29.89F
RICE LAKE      MOSUNNY   56  49  76 SE14      29.91F
CHETEK         PTSUNNY   55  50  85 SE10      29.91F
LADYSMITH      CLOUDY    51  50  97 S7        29.94F
EAU CLAIRE     MOSUNNY   56  49  77 SE10      29.92F
MENOMONIE      FAIR      59  51  76 SE12      29.90F
NEW RICHMOND   PTSUNNY   60  52  76 S12       29.88F
OSCEOLA        MOSUNNY   60  54  79 S13       29.90S
$$

WIZ003>005-009-010-017-018-241800-
NORTH CENTRAL WISCONSIN

CITY           SKY/WX    TMP DP  RH WIND       PRES   REMARKS
MANITOWISH WTR CLOUDY    48  47  95 S8        29.92F
ARBOR VITAE    CLOUDY    51  50  97 S9        29.93F
WOODRUFF       CLOUDY    51  50  97 S9        29.93F
RHINELANDER    CLOUDY    47  46  97 SW9       29.96F
EAGLE RIVER    CLOUDY    48  48 100 CALM      29.93F
LAND O LAKES   PTSUNNY   53  48  83 S5        29.93F
PHILLIPS       MOSUNNY   52  48  85 S8        29.92F
TOMAHAWK       CLOUDY    47  47  97 CALM      29.96F
MEDFORD        CLOUDY    47  47 100 S7        29.96F FOG
MERRILL        CLOUDY    47  47 100 S6        29.98S
$$

WIZ029-030-035-036-043>047-241800-
CENTRAL WISCONSIN

CITY           SKY/WX    TMP DP  RH WIND       PRES   REMARKS
WAUSAU         CLOUDY    47  46  97 SW6       29.98S FOG
MOSINEE        FOG       45  45 100 S6        30.00S VSB 1/4
MARSHFIELD     CLOUDY    49  48  97 S7        29.98S FOG
STEVENS POINT  CLOUDY    46  46 100 S6        30.00F FOG
WAUPACA        CLOUDY    51  49  96 S7        30.01S FOG
WAUTOMA        CLOUDY    50  49  96 CALM      30.01F FOG
WISC RAPIDS    CLOUDY    49  48  97 S6        30.01S FOG
CAMP DOUGLAS   PTSUNNY   54  54 100 SE6       30.00F
$$

WIZ011>013-019>022-031-037>040-048>050-241800-
NORTHEAST WISCONSIN

CITY           SKY/WX    TMP DP  RH WIND       PRES   REMARKS
ANTIGO         CLOUDY    47  47 100 S6        29.98S FOG
SHAWANO        CLOUDY    50  48  94 S3        30.00S FOG
OCONTO         CLOUDY    49  48  99 W5        29.99F
STURGEON BAY   CLOUDY    48  45  87 SW8       29.99F
GREEN BAY      CLOUDY    50  48  93 SW8       30.00F FOG
MANITOWOC      CLOUDY    52  49  89 SW6       30.01F
APPLETON       FOG       48  48 100 SW6       30.02S VSB 3/4
CLINTONVILLE   CLOUDY    48  46  93 SW7       30.00F FOG
OSHKOSH        CLOUDY    50  48  93 SW8       30.01F
$$

WIZ032>034-041-042-053>061-241800-
SOUTHWEST WISCONSIN

CITY           SKY/WX    TMP DP  RH WIND       PRES   REMARKS
LA CROSSE      PTSUNNY   59  53  80 S9        29.96F
SPARTA         MOSUNNY   58  49  72 S7        29.98F
VIROQUA        CLOUDY    54  54 100 S8        29.98F
BOSCOBEL       PTSUNNY   59  53  80 SW7       30.01F
PRAIRIE DU CHI PTSUNNY   58  53  84 SE10      29.99F
PLATTEVILLE    CLOUDY    54  53  97 S10       30.03F VSB 1/4
$$

WIZ056-057-062-063-064-067-068-241800-
SOUTH CENTRAL WISCONSIN

CITY           SKY/WX    TMP DP  RH WIND       PRES   REMARKS
REEDSBURG      CLOUDY    50  50  98 S7        30.01F
BARABOO/DELLS  CLOUDY    51  50  95 SW6       30.02S
LONE ROCK      CLOUDY    59  52  77 SW6       30.02F
MINERAL POINT  FOG       54  52  94 S8        30.02F VSB 1/2
MADISON        CLOUDY    52  50  93 S7        30.03F FOG
MIDDLETON      CLOUDY    53  53 100 SW7       30.03F
WATERTOWN      CLOUDY    51  51 100 SW7       30.03F
MONROE         FOG       52  50  93 S10       30.04S VSB 1/4
JANESVILLE     CLOUDY    52  50  93 SW7       30.05S FOG
$$

WIZ051-052-058>065-066-070>072-241800-
SOUTHEAST WISCONSIN

CITY           SKY/WX    TMP DP  RH WIND       PRES   REMARKS
MILWAUKEE      CLOUDY    53  49  86 SW8       30.03F
WAUKESHA       CLOUDY    50  48  93 SW6       30.05S
MILWAUKEE/TIMM CLOUDY    52  46  82 CALM      30.05S
RACINE         CLOUDY    53  49  86 SW5       30.05F
BURLINGTON     CLOUDY    51  49  94 SW3       30.04F
KENOSHA        CLOUDY    52  50  93 SW7       30.04F FOG
FOND DU LAC    CLOUDY    51  48  89 SW8       30.02F
SHEBOYGAN      CLOUDY    53  48  83 S6        30.01F
WEST BEND      PTSUNNY   54  46  76 W6        30.02F
JUNEAU         CLOUDY    49  49  98 SW7       30.04S FOG
$$

LSZ147-162-241800-
LAKE SUPERIOR

STATION/POSITION TIME  TEMP    WIND        PRES    WAVE
                       AIR SEA DIR/SP/G            HT/PER
                 (UTC) (F)     (DEG/KT/KT) (MB)    (FT/S)
W MID LAKE BUOY  1650   48 46  190/  8/  8 1010.9F   1/ 3
DEVILS ISLAND    1700   53     320/  2/  3 1010.7F
PORT WING        1640          320/  9/ 11 1010.8F
SAXON HARBOR     1640   62     190/  9/ 15 1011.2F
$$

LMZ867-665-643>646-241800-
LAKE MICHIGAN

STATION/POSITION TIME  TEMP    WIND        PRES    WAVE
                       AIR SEA DIR/SP/G            HT/PER
                 (UTC) (F)     (DEG/KT/KT) (MB)    (FT/S)
CHAMBERS ISLAND  1600   48     210/  4/ 10 1015.9F
N MID LAKE BUOY  1650   50 51  230/ 12/ 14 1015.4F   1/ 5
NORTHPORT PIER   1600   50     230/  4/  9 1015.6F
SISTER BAY       1513          250/  9/ 11   N/A
ALGOMA LAKESHORE 1511          270/ 10/ 13   N/A
KEWAUNEE LAKESHO 1600   50     250/  3/  5 1015.4F
SHEBOYGAN LAKESH 1700   51 50  190/  5/  6 1016.8F
PORT WASHINGTON  1600   52     190/  5/  6 1017.6F
ATWATER BUOY     1700   51     150/  4/  4 1017.9F
MILWAUKEE LAKESH 1600   51     230/  3/  4   N/A
S MID LAKE BUOY  1650   52 54  240/  8/ 10 1017.5F   1
KENOSHA   LAKESH 1700   52     270/  4/  7 1016.9F
$$

TC  - TEMPERATURE IN CELSIUS
VSB - VISIBILITY IN STATUTE MILES
WCI - WIND CHILL INDEX
HX  - HEAT INDEX




USA.gov is the U.S. government's official web portal to all federal, state and local government web resources and services.